• In Hungary
  • List of Countries
  • For 7 days
  • Water Temperature
  • Satellite Maps
  • Weather Map
  • News
  • Weather Widgets
  • user-avatar
    Login

    Hourly Weather Sowin

    Today, 21 September, Friday

    Time Temperature Precipitation Wind Pressure Humidity
    00:00 +19°C° 0 mm 2 mps 745 mmHg 73%
    01:00 +19°C° 0 mm 2 mps 745 mmHg 75%
    02:00 +18°C° 0 mm 3 mps 745 mmHg 75%
    03:00 +18°C° 0 mm 3 mps 744 mmHg 75%
    04:00 +18°C° 0 mm 3 mps 744 mmHg 75%
    05:00 +18°C° 0 mm 3 mps 744 mmHg 73%
    06:00 +19°C° 0 mm 3 mps 744 mmHg 72%
    07:00 +19°C° 0 mm 3 mps 744 mmHg 71%
    08:00 +21°C° 0 mm 3 mps 744 mmHg 63%
    09:00 +23°C° 0 mm 4 mps 743 mmHg 55%
    10:00 +26°C° 0 mm 5 mps 743 mmHg 47%
    11:00 +27°C° 0 mm 6 mps 742 mmHg 45%
    12:00 +27°C° 0 mm 6 mps 742 mmHg 43%
    13:00 +29°C° 0 mm 5 mps 741 mmHg 41%
    14:00 +29°C° 0 mm 5 mps 741 mmHg 44%
    15:00 +28°C° 0 mm 5 mps 740 mmHg 47%
    16:00 +27°C° 0 mm 5 mps 740 mmHg 50%
    17:00 +26°C° 0 mm 5 mps 740 mmHg 54%
    18:00 +25°C° 0 mm 5 mps 739 mmHg 57%
    19:00 +22°C° 0 mm 5 mps 739 mmHg 61%
    20:00 +22°C° 0.3 mm 5 mps 740 mmHg 63%
    21:00 +22°C° 0.3 mm 5 mps 740 mmHg 66%
    22:00 +21°C° 0.3 mm 5 mps 740 mmHg 68%
    23:00 +20°C° 1.1 mm 5 mps 741 mmHg 73%

    Tomorrow, 22 September, Saturday

    Time Temperature Precipitation Wind Pressure Humidity
    00:00 +17°C° 1.1 mm 6 mps 742 mmHg 78%
    01:00 +15°C° 1.1 mm 6 mps 743 mmHg 83%
    02:00 +15°C° 0.7 mm 5 mps 744 mmHg 82%
    03:00 +14°C° 0.7 mm 4 mps 744 mmHg 80%
    04:00 +13°C° 0.7 mm 3 mps 745 mmHg 78%
    05:00 +13°C° 0 mm 3 mps 746 mmHg 77%
    06:00 +13°C° 0 mm 3 mps 746 mmHg 77%
    07:00 +13°C° 0 mm 3 mps 746 mmHg 76%
    08:00 +14°C° 0 mm 4 mps 747 mmHg 68%
    09:00 +15°C° 0 mm 4 mps 747 mmHg 61%
    10:00 +16°C° 0 mm 5 mps 747 mmHg 53%
    11:00 +16°C° 0 mm 5 mps 747 mmHg 50%
    12:00 +17°C° 0 mm 5 mps 747 mmHg 47%
    13:00 +19°C° 0 mm 5 mps 746 mmHg 45%
    14:00 +17°C° 0 mm 5 mps 746 mmHg 45%
    15:00 +17°C° 0 mm 5 mps 746 mmHg 46%
    16:00 +18°C° 0 mm 4 mps 746 mmHg 47%
    17:00 +17°C° 0 mm 4 mps 746 mmHg 50%
    18:00 +16°C° 0 mm 3 mps 746 mmHg 53%
    19:00 +15°C° 0 mm 2 mps 747 mmHg 57%
    20:00 +14°C° 0 mm 2 mps 747 mmHg 58%
    21:00 +14°C° 0 mm 2 mps 747 mmHg 59%
    22:00 +14°C° 0 mm 2 mps 747 mmHg 60%
    23:00 +12°C° 0 mm 3 mps 747 mmHg 61%

    Day after tomorrow, 23 September, Sunday

    Time Temperature Precipitation Wind Pressure Humidity
    00:00 +12°C° 0 mm 3 mps 747 mmHg 63%
    01:00 +12°C° 0 mm 3 mps 746 mmHg 64%
    02:00 +12°C° 0 mm 3 mps 746 mmHg 67%
    03:00 +12°C° 0 mm 3 mps 746 mmHg 70%
    04:00 +12°C° 0 mm 4 mps 746 mmHg 72%
    05:00 +12°C° 0 mm 4 mps 746 mmHg 72%
    06:00 +12°C° 0 mm 4 mps 746 mmHg 72%
    07:00 +12°C° 0 mm 4 mps 746 mmHg 73%
    08:00 +13°C° 0 mm 4 mps 746 mmHg 70%
    09:00 +13°C° 0 mm 4 mps 746 mmHg 68%
    10:00 +14°C° 0 mm 4 mps 746 mmHg 65%
    11:00 +14°C° 0 mm 4 mps 745 mmHg 65%
    12:00 +14°C° 0 mm 4 mps 745 mmHg 65%
    13:00 +15°C° 0 mm 4 mps 744 mmHg 65%
    14:00 +15°C° 0 mm 4 mps 744 mmHg 66%
    15:00 +15°C° 0 mm 4 mps 743 mmHg 68%
    16:00 +15°C° 0 mm 4 mps 742 mmHg 69%
    17:00 +14°C° 0.3 mm 4 mps 741 mmHg 74%
    18:00 +14°C° 0.3 mm 5 mps 740 mmHg 79%
    19:00 +13°C° 0.3 mm 5 mps 739 mmHg 84%
    20:00 +14°C° 0.6 mm 7 mps 737 mmHg 83%
    21:00 +15°C° 0.6 mm 8 mps 736 mmHg 81%
    22:00 +14°C° 0.6 mm 10 mps 734 mmHg 80%
    23:00 +16°C° 2.2 mm 10 mps 733 mmHg 81%

    24 September, Monday

    Time Temperature Precipitation Wind Pressure Humidity
    00:00 +16°C° 2.2 mm 9 mps 732 mmHg 82%
    01:00 +17°C° 2.2 mm 9 mps 732 mmHg 83%
    02:00 +13°C° 1 mm 10 mps 733 mmHg 83%
    03:00 +11°C° 1 mm 11 mps 735 mmHg 84%
    04:00 +7°C° 1 mm 12 mps 737 mmHg 84%
    05:00 +7°C° 0.2 mm 11 mps 739 mmHg 83%
    06:00 +7°C° 0.2 mm 11 mps 741 mmHg 82%
    07:00 +8°C° 0.2 mm 10 mps 743 mmHg 81%
    08:00 +8°C° 0.1 mm 10 mps 744 mmHg 75%
    09:00 +9°C° 0.1 mm 11 mps 745 mmHg 68%
    10:00 +9°C° 0.1 mm 11 mps 746 mmHg 62%
    11:00 +11°C° 0.1 mm 11 mps 746 mmHg 58%
    12:00 +11°C° 0.1 mm 11 mps 747 mmHg 54%
    13:00 +12°C° 0.1 mm 11 mps 748 mmHg 50%
    14:00 +11°C° 0.1 mm 10 mps 748 mmHg 50%
    15:00 +11°C° 0.1 mm 9 mps 748 mmHg 50%
    16:00 +11°C° 0.1 mm 9 mps 749 mmHg 50%
    17:00 +10°C° 0 mm 8 mps 749 mmHg 54%
    18:00 +9°C° 0 mm 6 mps 750 mmHg 57%
    19:00 +8°C° 0 mm 5 mps 751 mmHg 61%
    20:00 +7°C° 0 mm 5 mps 751 mmHg 62%
    21:00 +7°C° 0 mm 5 mps 752 mmHg 64%
    22:00 +7°C° 0 mm 5 mps 752 mmHg 65%
    23:00 +6°C° 0 mm 5 mps 752 mmHg 67%

    25 September, Tuesday

    Time Temperature Precipitation Wind Pressure Humidity
    00:00 +6°C° 0 mm 5 mps 753 mmHg 68%
    01:00 +6°C° 0 mm 5 mps 753 mmHg 70%
    02:00 +5°C° 0 mm 5 mps 753 mmHg 71%
    03:00 +5°C° 0 mm 5 mps 754 mmHg 73%
    04:00 +5°C° 0 mm 5 mps 754 mmHg 75%
    05:00 +5°C° 0 mm 5 mps 755 mmHg 75%
    06:00 +5°C° 0 mm 5 mps 755 mmHg 75%
    07:00 +5°C° 0 mm 5 mps 756 mmHg 75%
    08:00 +7°C° 0 mm 5 mps 756 mmHg 70%
    09:00 +8°C° 0 mm 5 mps 756 mmHg 65%
    10:00 +10°C° 0 mm 5 mps 757 mmHg 60%
    11:00 +10°C° 0 mm 5 mps 756 mmHg 56%
    12:00 +12°C° 0 mm 5 mps 756 mmHg 53%
    13:00 +13°C° 0 mm 5 mps 756 mmHg 49%
    14:00 +13°C° 0 mm 5 mps 755 mmHg 49%
    15:00 +12°C° 0 mm 4 mps 755 mmHg 49%
    16:00 +12°C° 0 mm 4 mps 754 mmHg 48%
    17:00 +11°C° 0 mm 4 mps 754 mmHg 52%
    18:00 +10°C° 0 mm 4 mps 754 mmHg 55%
    19:00 +9°C° 0 mm 3 mps 754 mmHg 58%
    20:00 +8°C° 0 mm 4 mps 754 mmHg 59%
    21:00 +8°C° 0 mm 4 mps 753 mmHg 60%
    22:00 +8°C° 0 mm 5 mps 753 mmHg 60%
    23:00 +7°C° 0.4 mm 5 mps 753 mmHg 66%

    26 September, Wednesday

    Time Temperature Precipitation Wind Pressure Humidity
    00:00 +7°C° 0.4 mm 5 mps 753 mmHg 71%
    01:00 +7°C° 0.4 mm 6 mps 753 mmHg 76%
    02:00 +7°C° 0.4 mm 5 mps 753 mmHg 79%
    03:00 +7°C° 0.4 mm 5 mps 753 mmHg 82%
    04:00 +8°C° 0.4 mm 5 mps 753 mmHg 86%
    05:00 +8°C° 0.1 mm 5 mps 753 mmHg 86%
    06:00 +8°C° 0.1 mm 5 mps 754 mmHg 87%
    07:00 +8°C° 0.1 mm 5 mps 754 mmHg 87%
    08:00 +9°C° 0 mm 5 mps 754 mmHg 80%
    09:00 +10°C° 0 mm 5 mps 755 mmHg 72%
    10:00 +12°C° 0 mm 5 mps 755 mmHg 65%
    11:00 +13°C° 0 mm 5 mps 755 mmHg 61%
    12:00 +14°C° 0 mm 5 mps 755 mmHg 58%
    13:00 +14°C° 0 mm 4 mps 755 mmHg 54%
    14:00 +14°C° 0 mm 4 mps 755 mmHg 55%
    15:00 +14°C° 0 mm 4 mps 755 mmHg 57%
    16:00 +14°C° 0 mm 4 mps 755 mmHg 58%
    17:00 +13°C° 0 mm 3 mps 755 mmHg 65%
    18:00 +12°C° 0 mm 2 mps 755 mmHg 72%
    19:00 +11°C° 0 mm 1 mps 755 mmHg 78%
    20:00 +9°C° 0 mm 2 mps 755 mmHg 79%
    21:00 +9°C° 0 mm 2 mps 755 mmHg 79%
    22:00 +9°C° 0 mm 2 mps 755 mmHg 80%
    23:00 +9°C° 0 mm 2 mps 755 mmHg 80%
    Show more